KI4CGS Weather Reports


Display with metric or nautical units.
time (UTC)temp
F
wind
direction
speed
MPH
gust
MPH
rain 1hr
in
rain 24hr
in
rain mn
in
humidity
%
barometer
mb
20260906131535 73 137 2.0 4.0 0.00 0.02 0.02 94 1015.1
20260906131020 73 138 1.0 4.0 0.00 0.02 0.02 94 1015.1
20260906130524 72 0 0.0 0.0 0.00 0.02 0.02 94 1015.1
20260906130035 72 0 0.0 0.0 0.00 0.02 0.02 94 1015.1
20260906125520 72 0 0.0 0.0 0.00 0.02 0.02 94 1015.1
20260906125017 72 0 0.0 0.0 0.00 0.02 0.02 94 1015.1
20260906124539 72 0 0.0 0.0 0.00 0.02 0.02 94 1015.1
20260906124018 71 0 0.0 0.0 0.00 0.02 0.02 94 1015.1
20260906123516 71 0 0.0 1.0 0.00 0.02 0.02 94 1015.0
20260906123036 71 0 0.0 2.0 0.00 0.02 0.02 94 1015.1
20260906122516 71 0 0.0 2.0 0.00 0.02 0.02 93 1015.1
20260906122023 71 0 0.0 0.0 0.00 0.02 0.02 93 1014.9
20260906121536 71 0 0.0 0.0 0.00 0.02 0.02 94 1014.9
20260906121020 71 0 0.0 0.0 0.00 0.02 0.02 94 1014.9
20260906120520 71 0 0.0 0.0 0.00 0.02 0.02 94 1014.9
20260906120036 71 0 0.0 0.0 0.00 0.02 0.02 93 1014.7
20260906115520 71 0 0.0 0.0 0.00 0.02 0.02 93 1014.7
20260906115019 71 0 0.0 0.0 0.00 0.02 0.02 93 1014.5
20260906114544 71 0 0.0 0.0 0.00 0.02 0.02 93 1014.5
20260906114016 71 0 0.0 0.0 0.00 0.02 0.02 93 1014.4
20260906113518 71 0 0.0 0.0 0.00 0.02 0.02 93 1014.3
20260906113035 71 0 0.0 0.0 0.00 0.02 0.02 93 1014.2
20260906112515 71 0 0.0 0.0 0.00 0.02 0.02 93 1014.2
20260906112019 71 0 0.0 0.0 0.00 0.02 0.02 93 1014.2
20260906111533 71 0 0.0 0.0 0.00 0.02 0.02 93 1014.2
20260906111020 71 0 0.0 1.0 0.00 0.02 0.02 93 1014.2
20260906110518 72 0 0.0 1.0 0.00 0.02 0.02 93 1014.2
20260906110034 72 0 0.0 0.0 0.00 0.02 0.02 93 1014.1
20260906105520 72 0 0.0 0.0 0.00 0.02 0.02 93 1014.1
20260906105020 72 0 0.0 1.0 0.00 0.02 0.02 93 1014.0
20260906104537 72 0 0.0 1.0 0.00 0.02 0.02 93 1013.8
20260906104018 72 0 0.0 1.0 0.00 0.02 0.02 93 1013.7
20260906103518 72 0 0.0 1.0 0.00 0.02 0.02 93 1013.8
20260906103034 72 0 0.0 1.0 0.00 0.02 0.02 93 1013.8
20260906102517 72 0 0.0 0.0 0.00 0.02 0.02 93 1013.7
20260906102016 72 0 0.0 0.0 0.00 0.02 0.02 93 1013.8
20260906101534 72 0 0.0 1.0 0.00 0.02 0.02 93 1013.9
20260906101023 72 0 0.0 4.0 0.00 0.02 0.02 93 1013.8
20260906100523 72 0 0.0 4.0 0.00 0.02 0.02 92 1014.0
20260906100033 73 0 0.0 0.0 0.00 0.02 0.02 92 1014.2
20260906095520 73 0 0.0 0.0 0.00 0.02 0.02 92 1014.1
20260906095017 73 0 0.0 4.0 0.00 0.02 0.02 92 1014.1
20260906094541 73 0 1.0 4.0 0.01 0.02 0.02 92 1014.3
20260906094016 73 315 0.0 3.0 0.01 0.02 0.02 92 1014.3
20260906093517 73 316 0.0 2.0 0.01 0.02 0.02 92 1014.4
20260906093034 73 316 0.0 2.0 0.01 0.02 0.02 92 1014.3
20260906092520 73 0 0.0 2.0 0.01 0.02 0.02 92 1014.5
20260906092022 73 0 0.0 3.0 0.01 0.02 0.02 92 1014.6
20260906091540 73 0 0.0 3.0 0.01 0.02 0.02 92 1014.5
20260906091020 73 0 0.0 3.0 0.01 0.02 0.02 92 1014.4
20260906090519 73 13 0.0 2.0 0.02 0.02 0.02 92 1014.3
20260906090037 73 13 0.0 3.0 0.02 0.02 0.02 92 1014.4
20260906085519 74 0 0.0 3.0 0.02 0.02 0.02 92 1014.5
20260906085020 74 13 2.0 3.0 0.02 0.02 0.02 92 1014.6
20260906084538 74 0 0.0 2.0 0.01 0.01 0.01 91 1014.7
20260906084019 74 0 0.0 2.0 0.01 0.01 0.01 91 1014.7
20260906083518 74 9 0.0 2.0 0.01 0.01 0.01 91 1014.6
20260906083035 74 0 0.0 5.0 0.01 0.01 0.01 90 1014.7
20260906082518 74 9 1.0 8.0 0.01 0.01 0.01 90 1014.6
20260906082018 74 339 3.0 8.0 0.01 0.01 0.01 90 1014.6
20260906081541 75 360 2.0 4.0 0.01 0.01 0.01 91 1014.4
20260906081020 75 345 1.0 4.0 0.01 0.01 0.01 90 1013.9
20260906080520 75 9 0.0 2.0 0.00 0.00 0.00 90 1013.7
20260906080037 75 0 0.0 4.0 0.00 0.00 0.00 90 1013.8
20260906075519 75 5 0.0 7.0 0.00 0.00 0.00 89 1013.7
20260906075021 75 360 3.0 7.0 0.00 0.00 0.00 89 1013.9
20260906074534 75 168 0.0 5.0 0.00 0.00 0.00 88 1013.7
20260906074019 75 192 1.0 6.0 0.00 0.00 0.00 88 1013.8
20260906073516 75 121 2.0 6.0 0.00 0.00 0.00 87 1013.8
20260906073041 75 0 1.0 4.0 0.00 0.00 0.00 87 1014.0
20260906072520 75 257 1.0 6.0 0.00 0.00 0.00 87 1014.2
20260906072020 75 0 2.0 6.0 0.00 0.00 0.00 87 1014.1
20260906071536 75 125 2.0 6.0 0.00 0.00 0.00 88 1014.3
20260906071020 75 86 1.0 6.0 0.00 0.00 0.00 88 1014.4
20260906070524 74 113 2.0 6.0 0.00 0.00 0.00 88 1014.6
20260906070037 74 0 2.0 15.0 0.00 0.00 0.00 89 1014.6
20260906065519 73 258 5.0 15.0 0.00 0.00 0.00 90 1014.8
20260906065016 73 260 3.0 8.0 0.00 0.00 0.00 92 1014.9
20260906064537 73 0 1.0 5.0 0.00 0.00 0.00 92 1015.1
20260906064018 73 0 0.0 9.0 0.00 0.00 0.00 92 1015.0
20260906063518 73 321 3.0 9.0 0.00 0.00 0.00 92 1015.1
20260906063037 73 334 3.0 5.0 0.00 0.00 0.00 92 1015.3
20260906062519 73 0 0.0 0.0 0.00 0.00 0.00 92 1015.0
20260906062020 73 0 0.0 0.0 0.00 0.00 0.00 92 1014.9
20260906061538 73 0 0.0 2.0 0.00 0.00 0.00 92 1015.0
20260906061019 73 0 0.0 2.0 0.00 0.00 0.00 92 1015.1
20260906060520 73 68 0.0 2.0 0.00 0.00 0.00 92 1014.9
20260906060049 73 0 0.0 2.0 0.00 0.00 0.00 92 1014.9
20260906055520 73 68 0.0 2.0 0.00 0.00 0.00 92 1014.9
20260906055023 73 68 0.0 2.0 0.00 0.00 0.00 92 1014.6
20260906054535 73 0 0.0 2.0 0.00 0.00 0.00 92 1014.3
20260906054019 73 0 1.0 2.0 0.00 0.00 0.00 92 1014.4
20260906053520 73 0 0.0 4.0 0.00 0.00 0.00 92 1014.3
20260906053038 73 38 0.0 4.0 0.00 0.00 0.00 92 1014.2
20260906052526 73 10 2.0 4.0 0.00 0.00 0.00 92 1014.1
20260906052021 73 0 0.0 3.0 0.00 0.00 0.00 92 1014.0
20260906051536 73 360 1.0 3.0 0.00 0.00 0.00 92 1014.1
20260906051020 73 360 1.0 3.0 0.00 0.00 0.00 92 1014.2
20260906050519 73 0 0.0 0.0 0.00 0.00 0.00 92 1014.2
20260906050038 73 0 0.0 0.0 0.00 0.00 0.00 92 1014.2
20260906045521 73 0 0.0 0.0 0.00 0.00 0.00 92 1014.2
20260906045019 73 0 0.0 0.0 0.00 0.00 0.00 92 1014.3
20260906044538 73 0 0.0 0.0 0.00 0.00 0.00 91 1014.3
20260906044019 73 0 0.0 0.0 0.00 0.00 0.00 91 1014.3
20260906043520 74 0 0.0 0.0 0.00 0.00 0.00 91 1014.3
20260906043040 74 0 0.0 0.0 0.00 0.00 0.00 91 1014.4
20260906042520 74 0 0.0 0.0 0.00 0.00 0.00 91 1014.5
20260906042020 74 0 0.0 0.0 0.00 0.00 0.00 91 1014.5
20260906041537 74 0 0.0 0.0 0.00 0.00 0.00 91 1014.4
20260906041018 74 0 0.0 0.0 0.00 0.00 0.00 91 1014.5
20260906040517 74 0 0.0 0.0 0.00 0.00 0.00 91 1014.7
20260906040040 74 0 0.0 0.0 0.00 0.00 0.00 91 1014.6
20260906035519 74 0 0.0 0.0 0.00 0.00 0.00 90 1014.7
20260906035020 75 0 0.0 2.0 0.00 0.00 0.00 90 1014.8
20260906034536 75 0 0.0 2.0 0.00 0.00 0.00 90 1014.7
20260906034020 75 360 0.0 1.0 0.00 0.00 0.00 90 1014.7
20260906033520 75 0 0.0 2.0 0.00 0.00 0.00 90 1014.5
20260906033037 75 0 0.0 2.0 0.00 0.00 0.00 90 1014.7
20260906032519 75 0 0.0 1.0 0.00 0.00 0.00 89 1014.7
20260906032022 75 0 0.0 0.0 0.00 0.00 0.00 90 1014.7
20260906031603 75 0 0.0 0.0 0.00 0.00 0.00 90 1014.6
20260906031019 75 0 0.0 0.0 0.00 0.00 0.00 90 1014.7
20260906030520 75 0 0.0 0.0 0.00 0.00 0.00 89 1014.8
20260906030037 75 0 0.0 2.0 0.00 0.00 0.00 89 1014.7
20260906025521 75 0 0.0 2.0 0.00 0.00 0.00 89 1014.6
20260906025021 75 360 1.0 2.0 0.00 0.00 0.00 89 1014.5
20260906024542 76 360 0.0 1.0 0.00 0.00 0.00 89 1014.4
20260906024020 76 0 0.0 0.0 0.00 0.00 0.00 89 1014.2
20260906023520 76 0 0.0 0.0 0.00 0.00 0.00 89 1014.3
20260906023048 76 0 0.0 0.0 0.00 0.00 0.00 89 1014.2
20260906022520 76 0 0.0 1.0 0.00 0.00 0.00 88 1014.0
20260906022020 76 0 0.0 1.0 0.00 0.00 0.00 88 1013.9
20260906021536 76 0 0.0 1.0 0.00 0.00 0.00 88 1013.8
20260906021022 76 0 0.0 1.0 0.00 0.00 0.00 88 1013.8
20260906020519 76 0 0.0 2.0 0.00 0.00 0.00 87 1013.8
20260906020045 76 0 0.0 2.0 0.00 0.00 0.00 87 1013.9
20260906015518 77 360 0.0 2.0 0.00 0.00 0.00 87 1014.0
20260906015019 77 0 0.0 1.0 0.00 0.00 0.00 87 1014.0
20260906014539 77 0 0.0 1.0 0.00 0.00 0.00 87 1014.0
20260906014024 77 0 0.0 1.0 0.00 0.00 0.00 86 1013.8
20260906013519 77 0 0.0 2.0 0.00 0.00 0.00 86 1013.9
20260906013039 77 0 0.0 2.0 0.00 0.00 0.00 86 1013.9
20260906012520 77 360 0.0 2.0 0.00 0.00 0.00 86 1013.9
20260906012022 77 0 0.0 2.0 0.00 0.00 0.00 86 1013.8
20260906011538 78 0 0.0 2.0 0.00 0.00 0.00 85 1013.7
20260906011020 78 0 0.0 4.0 0.00 0.00 0.00 84 1013.6
20260906010522 78 0 0.0 4.0 0.00 0.00 0.00 84 1013.4
20260906010038 78 360 2.0 4.0 0.00 0.00 0.00 84 1013.3
20260906005520 78 18 0.0 4.0 0.00 0.00 0.00 83 1013.3
20260906005020 78 0 0.0 2.0 0.00 0.00 0.00 83 1013.3
20260906004546 78 0 0.0 2.0 0.00 0.00 0.00 83 1013.3
20260906004024 79 0 0.0 3.0 0.00 0.00 0.00 83 1013.3
20260906003518 79 0 1.0 4.0 0.00 0.00 0.00 83 1013.4
20260906003034 79 0 1.0 4.0 0.00 0.00 0.00 82 1013.2
20260906002518 79 311 1.0 4.0 0.00 0.00 0.00 81 1013.2
20260906002020 79 311 1.0 3.0 0.00 0.00 0.00 81 1013.2
20260906001544 80 307 0.0 2.0 0.00 0.00 0.00 81 1013.3
20260906001025 80 0 0.0 4.0 0.00 0.00 0.00 80 1013.4
20260906000521 80 307 0.0 4.0 0.00 0.00 0.00 80 1013.3
20260906000035 80 0 1.0 4.0 0.00 0.00 0.00 79 1013.3
20260905235519 81 317 0.0 5.0 0.00 0.00 0.00 78 1013.2
20260905235024 81 313 2.0 5.0 0.00 0.00 0.00 78 1013.4
20260905234536 81 344 1.0 3.0 0.00 0.00 0.00 78 1013.5
20260905234016 81 0 0.0 3.0 0.00 0.00 0.00 77 1013.4
20260905233520 81 0 0.0 4.0 0.00 0.00 0.00 77 1013.5
20260905233043 81 324 1.0 4.0 0.00 0.00 0.00 77 1013.5
20260905232520 81 36 0.0 3.0 0.00 0.00 0.00 78 1013.6
20260905232020 82 36 0.0 3.0 0.00 0.00 0.00 78 1013.7
20260905231539 82 35 0.0 3.0 0.00 0.00 0.00 78 1013.6
20260905231021 82 61 0.0 3.0 0.00 0.00 0.00 77 1013.6
20260905230520 83 75 1.0 3.0 0.00 0.00 0.00 76 1013.2
20260905230036 83 0 0.0 0.0 0.00 0.00 0.00 74 1013.0
20260905225520 83 0 0.0 2.0 0.00 0.00 0.00 74 1012.9
20260905225019 83 0 0.0 4.0 0.00 0.00 0.00 72 1012.8
20260905224534 84 85 2.0 5.0 0.00 0.00 0.00 70 1012.8
20260905224023 85 38 0.0 8.0 0.00 0.00 0.00 68 1012.8
20260905223516 85 246 2.0 8.0 0.00 0.00 0.00 68 1012.8
20260905223035 85 343 3.0 8.0 0.00 0.00 0.00 67 1012.5
20260905222521 86 339 3.0 8.0 0.00 0.00 0.00 66 1012.6
20260905222019 86 360 1.0 5.0 0.00 0.00 0.00 67 1012.6
20260905221549 86 0 1.0 7.0 0.00 0.00 0.00 65 1012.5
20260905221020 86 23 2.0 7.0 0.00 0.00 0.00 65 1012.9
20260905220518 86 271 1.0 13.0 0.00 0.00 0.00 65 1013.3
20260905220035 87 360 2.0 13.0 0.00 0.00 0.00 64 1013.4
20260905215520 87 330 1.0 12.0 0.00 0.00 0.00 64 1013.6
20260905215019 87 5 4.0 14.0 0.00 0.00 0.00 63 1013.6
20260905214535 88 340 6.0 20.0 0.00 0.00 0.00 61 1013.6
20260905214020 88 329 5.0 20.0 0.00 0.00 0.00 60 1013.7
20260905213520 89 348 11.0 20.0 0.00 0.00 0.00 59 1013.5
20260905213035 89 323 4.0 10.0 0.00 0.00 0.00 62 1013.4
20260905212521 89 309 4.0 10.0 0.00 0.00 0.00 63 1013.2
20260905212020 89 352 5.0 13.0 0.00 0.00 0.00 62 1013.1
20260905211535 89 325 3.0 13.0 0.00 0.00 0.00 60 1013.1
20260905211017 90 24 6.0 13.0 0.00 0.00 0.00 57 1013.1
20260905210519 90 28 4.0 12.0 0.00 0.00 0.00 57 1013.0
20260905210036 90 352 5.0 11.0 0.00 0.00 0.00 57 1013.0
20260905205519 90 22 2.0 5.0 0.00 0.00 0.00 56 1012.8
20260905205020 90 360 1.0 4.0 0.00 0.00 0.00 55 1012.9
20260905204541 91 0 0.0 5.0 0.00 0.00 0.00 52 1013.1
20260905204019 91 281 1.0 10.0 0.00 0.00 0.00 53 1013.1
20260905203516 91 337 4.0 10.0 0.00 0.00 0.00 51 1013.2
20260905203034 92 0 0.0 4.0 0.00 0.00 0.00 52 1013.1
20260905202521 92 15 1.0 5.0 0.00 0.00 0.00 51 1013.2
20260905202019 94 66 1.0 14.0 0.00 0.00 0.00 48 1013.2
20260905201534 95 0 5.0 17.0 0.00 0.00 0.00 46 1013.2
20260905201020 97 13 6.0 17.0 0.00 0.00 0.00 46 1013.4
20260905200526 98 21 5.0 12.0 0.00 0.00 0.00 46 1013.2
20260905200041 99 342 2.0 9.0 0.00 0.00 0.00 46 1013.2
20260905195519 99 331 2.0 9.0 0.00 0.00 0.00 46 1013.1
20260905195020 99 17 4.0 9.0 0.00 0.00 0.00 45 1013.1
20260905194538 99 338 4.0 9.0 0.00 0.00 0.00 47 1013.2
20260905194018 100 10 4.0 10.0 0.00 0.00 0.00 45 1013.1
20260905193520 100 340 4.0 10.0 0.00 0.00 0.00 47 1013.1
20260905193041 100 0 1.0 4.0 0.00 0.00 0.00 46 1013.0
20260905192522 100 0 0.0 4.0 0.00 0.00 0.00 44 1013.1
20260905192018 101 269 1.0 10.0 0.00 0.00 0.00 44 1013.2
20260905191533 101 9 2.0 10.0 0.00 0.00 0.00 42 1013.1
20260905191018 101 360 3.0 10.0 0.00 0.00 0.00 44 1013.2
20260905190522 101 18 1.0 5.0 0.00 0.00 0.00 47 1013.4
20260905190045 100 325 1.0 5.0 0.00 0.00 0.00 46 1013.4
20260905185517 100 164 2.0 9.0 0.00 0.00 0.00 48 1013.3
20260905185018 100 254 3.0 9.0 0.00 0.00 0.00 46 1013.4
20260905184536 100 250 2.0 8.0 0.00 0.00 0.00 48 1013.5
20260905184016 99 67 2.0 8.0 0.00 0.00 0.00 46 1013.6
20260905183518 99 339 4.0 8.0 0.00 0.00 0.00 47 1013.6
20260905183038 99 351 2.0 10.0 0.00 0.00 0.00 47 1013.7
20260905182520 99 11 3.0 10.0 0.00 0.00 0.00 48 1013.7
20260905182021 99 348 1.0 8.0 0.00 0.00 0.00 49 1013.9
20260905181537 99 344 3.0 8.0 0.00 0.00 0.00 45 1014.0
20260905181019 99 77 2.0 7.0 0.00 0.00 0.00 44 1013.9
20260905180520 99 360 1.0 10.0 0.00 0.00 0.00 45 1014.0
20260905180051 100 121 2.0 10.0 0.00 0.00 0.00 44 1014.1
20260905175519 99 352 2.0 9.0 0.00 0.00 0.00 47 1014.1
20260905175018 99 340 4.0 9.0 0.00 0.00 0.00 45 1014.3
20260905174534 99 347 3.0 6.0 0.00 0.00 0.00 47 1014.3
20260905174018 99 5 0.0 5.0 0.00 0.00 0.00 54 1014.4
20260905173518 98 79 1.0 6.0 0.00 0.00 0.00 47 1014.3
20260905173043 98 0 1.0 6.0 0.00 0.00 0.00 49 1014.4
20260905172518 98 13 1.0 6.0 0.00 0.00 0.00 47 1014.4
20260905172020 97 5 0.0 5.0 0.00 0.00 0.00 52 1014.4
20260905171548 97 319 1.0 5.0 0.00 0.00 0.00 48 1014.4
20260905171019 96 0 0.0 4.0 0.00 0.00 0.00 54 1014.4
20260905170517 96 36 1.0 4.0 0.00 0.00 0.00 54 1014.4
20260905170038 96 86 1.0 4.0 0.00 0.00 0.00 54 1014.5
20260905165522 96 69 0.0 4.0 0.00 0.00 0.00 59 1014.6
20260905165018 96 16 1.0 4.0 0.00 0.00 0.00 56 1014.7
20260905164536 95 236 1.0 4.0 0.00 0.00 0.00 58 1014.7
20260905164016 95 0 1.0 4.0 0.00 0.00 0.00 59 1014.9
20260905163520 94 0 0.0 3.0 0.00 0.00 0.00 59 1014.9
20260905163037 94 0 1.0 3.0 0.00 0.00 0.00 62 1015.1
20260905162520 94 19 0.0 3.0 0.00 0.00 0.00 60 1015.2
20260905162021 93 0 0.0 3.0 0.00 0.00 0.00 62 1015.4
20260905161536 93 18 2.0 3.0 0.00 0.00 0.00 62 1015.5
20260905161023 93 16 0.0 3.0 0.00 0.00 0.00 61 1015.5
20260905160519 92 0 1.0 2.0 0.00 0.00 0.00 64 1015.5
20260905160050 92 0 0.0 2.0 0.00 0.00 0.00 62 1015.5
20260905155517 92 0 0.0 4.0 0.00 0.00 0.00 63 1015.5
20260905155018 91 0 1.0 4.0 0.00 0.00 0.00 69 1015.5
20260905154540 91 15 1.0 4.0 0.00 0.00 0.00 65 1015.5
20260905154019 90 14 2.0 4.0 0.00 0.00 0.00 65 1015.7
20260905153519 90 5 1.0 3.0 0.00 0.00 0.00 68 1015.7
20260905153037 89 35 1.0 3.0 0.00 0.00 0.00 70 1015.7
20260905152518 88 31 0.0 3.0 0.00 0.00 0.00 71 1015.7
20260905152023 88 34 0.0 3.0 0.00 0.00 0.00 70 1015.9
20260905151538 87 33 0.0 3.0 0.00 0.00 0.00 71 1015.9
20260905151016 86 360 0.0 3.0 0.00 0.00 0.00 73 1015.9
20260905150518 86 0 1.0 5.0 0.00 0.00 0.00 74 1015.9
20260905150042 85 360 1.0 5.0 0.00 0.00 0.00 74 1016.0
20260905145521 85 344 1.0 5.0 0.00 0.00 0.00 76 1016.0
20260905145018 84 26 1.0 3.0 0.00 0.00 0.00 78 1016.1
20260905144538 83 103 0.0 3.0 0.00 0.00 0.00 80 1016.1
20260905144019 83 0 0.0 3.0 0.00 0.00 0.00 81 1016.2
20260905143519 82 0 1.0 3.0 0.00 0.00 0.00 83 1016.3
20260905143034 81 269 0.0 2.0 0.00 0.00 0.00 84 1016.3
20260905142521 80 0 0.0 2.0 0.00 0.00 0.00 88 1016.3
20260905142018 79 0 0.0 2.0 0.00 0.00 0.00 88 1016.2
20260905141538 79 275 0.0 3.0 0.00 0.00 0.00 88 1016.3
20260905141020 78 0 0.0 3.0 0.00 0.00 0.00 89 1016.3
20260905140524 78 0 0.0 0.0 0.00 0.00 0.00 89 1016.4
20260905140037 78 0 0.0 0.0 0.00 0.00 0.00 89 1016.4
20260905135520 77 0 0.0 0.0 0.00 0.00 0.00 90 1016.4
20260905135020 77 0 0.0 0.0 0.00 0.00 0.00 91 1016.4
20260905134534 76 0 0.0 0.0 0.00 0.00 0.00 92 1016.4
20260905134020 76 0 0.0 0.0 0.00 0.00 0.00 92 1016.4
20260905133517 76 0 0.0 0.0 0.00 0.00 0.00 93 1016.5
20260905133034 75 0 0.0 0.0 0.00 0.00 0.00 93 1016.5
20260905132516 75 0 0.0 0.0 0.00 0.00 0.00 93 1016.6
20260905132020 75 0 0.0 0.0 0.00 0.00 0.00 93 1016.6